Theta_e
315 315 316 315 315 315 315 315 315 315 314 314 314 314 314 315 314 314 314 314 314 314 314 314 314 314 314 313 313 313 313 313 312 312 311 311 311 310 308 307 308 309 311 313 313 314 314 314 315 315 315 316 316 316 317 316 316 315 314 313 312 311 310 307 306 308 308 308 307 307 308 304 297 294 294 293 292 291 290 289 288 288 287 288 291
315 315 315 315 315 315 315 315 315 315 315 314 314 314 314 314 314 314 314 314 314 314 314 314 314 314 313 313 313 313 313 313 312 312 311 311 311 310 309 307 306 307 309 310 311 311 312 313 313 315 316 316 316 316 317 316 316 315 315 313 312 312 311 309 309 309 308 307 305 305 306 303 298 295 293 292 291 290 289 289 288 288 288 290 293
315 315 315 315 315 315 315 315 315 315 315 314 314 314 314 314 314 314 314 314 314 314 314 314 314 314 313 313 313 313 313 313 312 312 312 312 312 310 309 308 307 307 308 309 309 310 312 312 314 315 316 316 315 315 315 315 314 314 314 313 312 312 311 310 309 308 307 306 304 304 304 301 298 296 293 291 291 290 289 288 288 288 290 293 295
314 315 315 315 315 314 314 315 314 315 314 315 315 314 314 314 314 314 314 314 314 314 314 314 314 314 313 313 313 313 313 312 312 312 312 312 312 311 310 309 308 307 308 309 311 312 313 314 314 315 315 315 315 315 315 315 314 314 314 313 313 312 311 309 309 307 305 303 302 302 300 298 296 295 292 290 290 289 288 288 289 291 294 295 295
314 314 314 314 315 314 314 314 314 315 314 315 315 314 315 314 314 314 314 314 314 314 314 314 314 314 313 313 313 313 313 312 312 311 311 311 312 311 311 310 309 308 307 308 310 311 312 313 313 313 313 313 314 314 314 314 314 314 314 314 313 312 310 308 308 306 303 302 301 300 297 295 295 295 292 291 291 290 289 290 293 295 296 296 295
314 314 314 314 314 314 314 314 314 314 314 314 314 314 314 314 314 314 314 314 314 314 314 314 314 314 314 313 313 313 313 312 312 311 311 311 311 311 311 310 310 309 308 307 307 308 310 311 312 312 312 313 313 313 313 314 314 314 313 313 313 312 310 308 307 305 303 301 300 298 296 295 296 296 293 291 291 291 293 295 296 296 296 296 294
314 314 314 314 314 314 314 313 313 313 313 313 314 313 314 314 314 314 314 314 314 314 314 314 313 314 313 313 313 313 312 312 312 311 311 311 311 311 311 310 310 309 309 307 306 306 308 309 310 311 312 312 313 313 312 312 313 314 314 314 313 311 310 309 307 304 302 300 298 297 296 295 296 295 292 291 291 293 296 298 297 297 296 296 294
313 313 313 313 313 313 313 313 313 313 313 313 313 313 313 313 313 313 313 313 313 313 313 313 313 313 313 313 313 313 312 312 312 311 311 311 311 310 310 310 310 309 309 308 307 306 306 307 308 309 310 311 311 312 312 312 313 313 313 313 311 310 309 308 306 303 301 299 298 297 295 295 295 293 291 291 293 295 297 298 298 297 296 295 293
313 313 313 313 313 313 312 313 312 312 313 312 312 313 312 312 312 312 312 312 312 312 312 312 312 312 312 312 312 312 312 312 312 311 311 311 310 310 310 309 309 309 309 309 308 307 306 306 306 307 308 309 310 312 312 313 312 311 311 311 310 308 307 306 304 302 300 298 297 296 295 295 294 291 290 292 295 297 299 298 297 296 295 294 293
312 312 312 312 312 312 312 312 312 312 312 312 312 312 312 312 312 312 312 312 312 312 312 312 312 312 312 312 312 312 312 312 311 311 311 310 310 309 309 309 309 308 308 308 308 307 307 306 305 306 308 309 310 310 311 311 311 311 311 310 308 307 306 304 304 303 300 298 297 296 295 294 293 291 292 294 296 298 299 298 297 295 294 293 292
311 311 311 310 310 310 310 311 311 311 311 311 311 312 311 311 311 311 312 311 312 312 312 312 312 312 312 312 312 312 311 311 311 311 311 310 309 309 308 308 308 308 308 308 308 308 307 306 305 305 306 307 309 309 309 309 309 309 309 308 307 306 305 304 304 303 300 298 297 296 295 294 292 292 293 294 297 298 298 297 296 295 294 294 293
309 309 309 309 309 309 309 309 309 309 309 310 310 310 310 310 311 311 311 311 312 312 312 312 312 312 312 312 312 312 311 311 311 310 310 310 309 309 308 308 308 307 307 307 307 307 307 306 305 304 304 305 306 306 306 307 307 308 308 307 305 305 304 303 302 301 300 298 296 295 295 294 293 293 294 296 298 298 297 296 295 295 295 295 294
309 308 308 308 307 307 308 308 308 308 308 308 308 307 307 308 308 308 309 310 311 311 311 311 311 311 311 311 311 311 311 311 310 310 310 310 309 308 308 308 308 307 307 306 306 306 306 305 305 304 303 303 303 304 305 305 306 306 306 306 305 304 303 302 300 299 299 298 298 297 296 295 294 293 294 296 298 297 296 295 295 295 295 295 295
306 306 306 306 305 305 306 306 306 306 306 306 306 306 306 306 305 305 306 306 307 308 308 309 309 310 310 310 310 310 310 310 310 310 309 309 308 308 308 308 308 308 307 306 306 305 305 305 304 303 303 303 303 304 305 305 305 305 305 305 305 304 303 301 299 298 297 297 297 297 297 296 294 293 294 297 298 297 296 295 295 295 295 295 294
304 304 304 304 304 304 304 304 304 304 304 304 305 304 304 304 304 304 304 304 304 305 305 305 305 306 306 307 307 308 308 309 309 309 309 308 308 307 307 307 307 308 307 306 306 305 305 304 303 303 302 302 303 304 304 304 305 305 304 304 304 303 302 300 299 299 298 296 295 296 297 296 294 293 295 297 297 296 295 295 294 294 294 294 293
302 302 302 302 302 302 302 303 303 303 303 303 303 303 303 303 303 303 304 303 304 304 303 304 304 304 304 304 304 304 305 306 307 308 308 308 307 307 307 307 307 307 307 306 305 305 304 303 302 302 301 301 302 303 303 304 304 304 303 303 303 302 301 300 298 297 297 296 294 294 295 295 294 294 296 297 296 295 295 294 294 294 293 292 291
300 300 300 300 300 300 301 300 301 301 301 301 302 302 302 302 302 302 302 303 303 303 303 303 303 303 303 303 303 304 304 304 305 306 308 307 306 306 306 306 306 306 306 306 305 304 304 303 301 300 300 300 301 302 302 302 302 302 302 301 300 299 298 297 296 295 294 293 293 293 293 293 293 294 296 296 295 295 295 294 294 294 293 292 291
300 300 300 300 300 300 300 299 300 300 300 300 300 300 300 300 300 300 300 301 301 302 302 302 302 302 302 302 302 303 303 304 303 305 307 307 305 304 304 304 305 305 305 305 305 304 303 302 301 300 299 300 300 301 301 301 301 300 300 299 298 297 296 296 294 293 292 291 291 292 293 293 294 294 295 295 295 295 295 295 294 294 293 292 291
299 299 299 299 299 299 298 298 298 298 299 299 299 299 299 299 299 299 299 299 299 300 300 300 301 301 301 301 301 301 302 302 303 304 306 306 305 303 303 303 303 304 304 304 304 304 303 302 300 300 299 299 300 300 300 300 299 299 298 297 296 296 295 295 295 294 292 292 292 293 293 293 294 294 294 295 295 295 294 294 293 293 292 292 291
298 298 298 298 298 297 297 297 297 297 297 297 297 298 297 297 298 298 298 298 298 298 299 298 299 299 299 299 300 300 300 301 302 303 305 306 304 302 301 302 303 303 303 303 303 303 302 301 300 299 299 298 299 299 299 299 298 297 296 296 296 296 295 295 295 294 293 292 292 293 293 293 294 294 294 295 295 294 293 292 292 292 292 291 291
296 296 296 296 296 296 296 296 296 296 296 296 296 296 296 296 296 296 296 297 296 297 297 297 297 298 298 298 298 299 299 300 300 302 304 305 304 302 301 301 302 301 301 302 302 302 301 300 300 299 298 298 298 298 298 298 297 296 296 296 296 295 295 294 293 292 292 292 292 293 293 293 293 293 294 294 294 293 292 291 291 291 292 291 291
295 295 295 295 295 295 295 295 295 295 295 295 295 295 295 295 295 295 295 296 296 296 296 296 296 297 297 297 298 298 298 298 299 300 302 304 304 302 301 301 300 300 300 300 300 300 300 299 299 298 298 297 297 297 297 296 296 295 295 295 294 293 293 293 292 291 292 291 292 293 293 293 293 293 294 294 293 292 291 291 291 291 291 291 290
295 294 294 294 294 294 294 294 294 294 294 294 294 295 295 295 295 295 295 295 296 296 296 296 296 296 296 296 296 297 297 297 298 298 299 302 304 303 301 301 300 299 298 299 300 299 298 298 297 297 297 297 296 296 296 295 294 294 294 293 293 292 291 290 290 291 291 291 292 293 293 293 293 293 293 293 292 291 291 291 291 291 290 290 289
294 294 294 294 294 294 294 294 294 294 294 294 294 294 294 294 294 295 295 296 296 296 296 296 296 296 296 296 296 296 296 296 297 297 298 300 303 303 301 300 299 298 298 298 299 298 297 297 297 296 296 296 295 295 294 294 294 293 293 292 291 290 290 289 290 290 291 291 293 293 293 293 294 293 293 293 292 291 291 290 290 290 289 289 288
294 294 294 294 294 294 294 294 294 294 294 294 294 294 294 294 294 295 295 296 296 296 296 296 296 296 296 296 296 296 296 296 296 297 298 299 301 302 301 300 299 298 297 298 298 297 296 296 296 296 295 294 294 293 293 293 292 292 291 291 290 289 289 289 289 290 291 292 293 293 293 293 293 293 293 292 291 290 290 290 289 289 289 288 287
293 293 293 293 293 293 293 293 293 293 293 294 294 294 294 294 294 295 295 295 295 295 295 295 295 295 296 296 296 297 297 296 296 297 298 299 301 300 299 299 299 297 296 296 296 296 295 294 294 295 294 293 293 293 292 292 291 290 289 289 288 288 288 289 289 290 292 293 293 293 293 293 293 292 292 291 290 290 290 289 289 288 288 287 286
292 292 292 292 292 292 292 292 292 292 293 293 293 293 294 294 295 295 295 295 295 295 295 295 295 295 296 296 296 296 297 297 296 297 298 299 299 299 298 298 298 297 296 296 295 295 294 294 294 294 294 292 292 291 291 290 290 289 288 288 288 288 288 289 290 291 293 293 293 292 293 293 292 292 291 290 289 289 289 288 288 287 287 286 284
291 291 291 291 291 291 291 291 291 291 292 292 293 293 294 294 294 294 294 294 295 295 295 296 296 296 296 296 296 296 297 297 296 297 298 299 298 297 296 296 296 296 296 296 295 294 293 293 293 292 291 290 290 289 289 289 288 288 287 287 287 288 288 289 290 292 293 293 292 292 292 292 292 291 290 289 288 288 288 287 287 286 285 284 284
290 290 290 290 290 290 290 290 290 291 291 292 292 293 293 294 294 294 294 294 295 296 296 296 296 296 296 296 296 296 296 297 297 297 297 298 297 296 295 295 295 295 295 295 294 293 292 291 291 290 290 289 289 288 288 288 287 287 287 287 287 287 288 289 291 292 292 291 291 291 292 292 291 290 289 288 288 287 287 286 286 286 285 284 284
290 290 290 290 290 289 289 289 290 291 291 292 292 293 293 293 294 294 294 294 294 295 295 295 296 296 295 295 296 295 295 296 297 297 297 296 295 294 294 294 294 294 294 293 293 292 291 290 290 290 289 289 288 288 288 288 287 287 287 287 287 287 287 289 291 292 291 290 291 292 292 291 290 289 289 288 287 286 286 285 285 285 285 285 284
289 289 289 289 289 289 289 289 290 290 291 292 292 293 293 293 293 294 294 294 294 295 295 295 295 295 294 295 295 296 295 295 296 296 296 295 293 293 293 293 293 293 292 292 291 290 289 289 289 289 288 288 288 288 288 287 287 287 287 287 288 288 288 289 291 291 291 291 291 292 291 290 290 289 288 287 287 287 286 285 285 285 285 285 284
289 289 289 289 289 289 289 290 290 290 291 292 292 292 293 293 293 293 294 294 294 294 295 295 295 294 294 293 293 294 295 295 294 294 294 293 292 292 293 292 292 292 291 290 289 289 289 288 288 288 288 287 287 287 287 287 287 287 287 287 288 288 289 290 291 291 291 291 291 291 290 289 289 288 287 287 288 287 286 285 284 285 285 284 283
288 288 289 289 289 289 289 290 290 290 291 291 291 292 292 292 292 292 293 294 294 294 294 294 294 293 293 292 292 292 293 293 292 292 292 292 291 292 292 292 291 291 290 289 288 288 288 288 288 288 287 287 286 286 286 286 286 286 287 288 288 288 289 291 291 290 290 291 290 290 289 288 288 287 288 288 288 287 286 285 284 284 284 284 283
288 288 288 288 288 289 289 289 289 290 290 290 290 290 290 290 290 290 291 292 293 294 294 294 293 292 292 292 291 291 291 291 291 291 291 291 291 291 290 290 290 290 289 288 288 288 288 287 287 287 286 286 286 286 286 286 286 286 287 288 288 288 289 290 290 290 290 290 289 289 288 288 288 288 288 288 288 287 286 285 284 284 284 283 282
288 288 288 287 287 288 288 288 288 288 289 289 289 289 289 289 289 288 288 288 289 290 292 293 292 291 290 290 290 290 290 290 290 290 290 290 290 290 289 288 288 289 289 288 288 287 287 287 287 287 286 286 286 286 286 286 286 286 287 287 288 288 288 289 289 289 289 289 288 288 288 288 288 288 289 289 288 287 286 285 284 284 283 282 280
287 288 288 287 287 287 287 287 287 287 287 288 288 288 288 287 287 287 286 285 284 285 287 289 289 288 288 289 289 289 289 289 289 290 289 289 289 289 288 288 288 288 289 288 288 287 287 287 287 286 286 286 286 285 285 286 286 286 287 287 287 288 288 288 288 289 289 288 288 288 288 288 288 288 288 288 287 286 285 284 284 283 282 281 279
286 287 287 287 286 286 286 287 286 286 286 286 287 286 286 286 286 284 284 283 283 284 285 286 286 286 287 288 288 288 289 289 288 289 288 288 288 288 287 287 288 288 288 288 288 287 287 286 286 286 286 285 285 285 285 286 286 287 287 287 287 288 288 288 288 288 288 288 288 288 288 288 288 288 288 287 286 285 284 284 283 282 281 280 279
286 286 286 285 285 286 286 286 286 285 284 284 284 284 285 285 283 281 281 282 283 283 284 285 285 285 286 287 287 288 288 287 288 288 288 288 287 287 287 287 287 287 287 287 287 287 287 286 286 286 286 285 285 285 285 285 286 287 287 287 287 287 288 288 288 288 288 288 288 288 288 288 288 288 287 286 285 285 284 284 283 281 280 279 279
285 285 285 285 285 285 285 285 284 284 283 283 283 282 282 282 280 280 281 282 282 282 283 283 284 284 285 286 286 287 287 287 287 287 287 287 287 287 287 287 286 286 286 286 286 286 286 286 286 286 285 285 285 285 285 285 285 286 286 287 287 287 287 287 287 287 287 288 288 288 288 288 287 287 286 285 284 284 283 283 281 280 279 279 279
284 285 285 284 284 284 284 284 284 283 283 282 282 281 280 279 279 280 281 281 281 282 282 283 283 284 285 285 286 286 286 286 286 286 286 286 286 286 286 286 286 285 285 285 286 286 286 286 286 286 285 285 285 285 284 285 285 286 286 286 287 287 287 287 287 287 287 288 288 288 287 287 286 286 285 284 284 283 282 281 280 279 279 279 279
283 284 284 284 284 284 284 284 284 283 282 282 281 280 279 279 279 280 280 281 281 282 282 283 284 284 285 285 285 285 285 285 285 285 286 286 286 285 285 285 285 285 285 285 286 286 286 286 286 286 285 285 284 284 284 284 285 285 285 286 286 287 287 287 287 287 287 287 287 287 286 286 285 284 284 283 283 282 281 280 279 279 279 278 278
282 282 283 283 283 284 284 284 284 283 282 282 281 280 279 278 279 280 281 281 282 282 282 283 284 284 285 285 285 284 284 285 285 285 285 285 285 285 285 285 285 285 285 285 286 286 286 286 286 285 285 285 284 284 284 284 285 285 285 285 286 286 286 287 287 287 286 286 286 286 285 284 284 283 283 282 281 280 280 279 279 279 279 278 278
280 281 281 282 283 283 283 284 283 283 282 281 280 279 278 279 280 281 281 282 282 282 283 283 284 284 284 284 284 284 284 284 284 285 285 285 285 284 284 284 285 285 285 286 286 286 286 286 286 285 285 285 284 284 284 284 285 285 285 285 285 285 286 286 286 286 285 285 285 284 284 283 283 282 282 281 280 279 279 279 279 278 278 278 277
279 279 280 281 281 282 283 283 283 283 282 280 279 279 279 280 280 281 281 281 282 282 282 283 283 283 283 283 283 283 283 284 284 284 284 284 284 284 284 284 285 285 285 285 285 285 285 285 285 285 285 284 284 284 284 284 285 285 285 285 285 285 285 285 285 285 285 284 284 283 283 282 282 281 280 279 279 279 279 278 278 278 277 277 277
278 278 279 279 280 281 282 283 283 283 281 280 280 281 280 280 280 281 281 281 281 281 282 282 282 282 282 282 282 283 283 283 283 284 284 284 284 284 284 284 284 284 284 285 285 285 285 285 284 284 284 284 284 284 284 284 284 284 284 284 284 284 284 284 284 284 283 283 283 283 282 281 280 280 279 279 279 278 278 278 277 277 277 276 276
277 277 278 278 279 280 281 282 282 282 281 280 280 280 280 280 280 280 281 281 281 281 281 281 281 281 282 282 282 282 283 283 283 283 283 283 283 283 283 283 284 284 284 284 284 284 284 284 284 284 284 284 284 284 284 284 284 284 283 283 283 283 283 283 283 283 282 282 281 281 280 279 279 279 279 278 278 278 278 277 277 276 276 276 275
277 277 277 277 278 278 279 280 281 281 281 281 280 280 280 280 280 280 281 281 281 281 281 281 281 281 281 281 282 282 282 282 282 282 283 283 283 283 283 283 283 283 283 283 284 284 284 283 283 284 284 284 284 284 284 284 284 283 283 283 283 282 282 282 282 281 281 280 280 279 279 279 279 278 278 278 278 277 277 277 276 276 275 275 274
276 276 276 276 277 277 278 279 279 280 280 280 280 280 279 279 280 280 281 281 281 281 281 281 281 281 281 281 281 282 282 282 282 282 282 282 282 282 282 282 282 282 283 283 283 283 283 283 283 283 283 283 283 283 283 283 283 283 282 282 282 281 281 281 280 280 279 279 279 279 279 278 278 278 278 277 277 277 276 276 275 275 274 274 273
274 274 275 275 276 276 277 277 278 278 278 278 279 279 279 279 279 280 280 280 280 280 280 280 280 280 281 281 281 281 281 281 281 282 282 282 281 281 281 282 282 282 282 283 283 283 283 283 283 282 282 282 282 282 282 282 281 281 281 281 280 280 280 279 279 279 279 279 278 278 278 278 278 277 277 277 276 276 276 275 275 274 273 273 272
272 273 273 274 274 275 276 276 276 277 277 277 277 278 278 278 279 279 279 280 280 280 280 280 280 280 280 280 280 281 281 281 281 281 281 281 281 281 281 281 281 281 281 282 282 282 282 281 281 281 281 281 281 281 280 280 280 280 280 279 279 279 279 279 279 278 278 278 278 278 278 277 277 277 276 276 276 275 275 274 274 273 273 272 272
271 272 272 273 273 274 275 275 276 276 276 276 277 277 277 277 278 278 278 279 279 279 279 279 279 279 279 279 280 280 280 280 280 280 280 280 280 280 280 280 280 280 280 280 281 281 281 281 280 280 280 280 280 280 280 279 279 279 279 279 279 278 278 278 278 278 278 278 278 277 277 277 276 276 276 275 275 274 274 273 273 272 272 271 271
Wind_Speed
12 14 14 15 16 17 16 16 16 16 16 17 18 19 20 22 22 24 25 25 26 26 27 27 27 28 29 29 30 30 30 31 31 32 33 34 35 34 34 37 41 44 46 48 49 50 52 54 54 53 52 53 54 53 53 53 54 56 57 59 59 60 59 56 55 57 56 52 50 45 40 35 34 36 39 41 44 46 45 42 39 36 34 35 36
15 16 17 17 18 18 18 18 17 17 16 16 16 17 18 19 21 23 24 24 25 26 26 26 27 29 29 30 31 31 32 32 33 34 34 34 35 35 34 36 39 42 44 47 49 50 52 52 52 52 52 53 54 54 55 55 55 57 58 59 59 59 58 57 57 58 57 54 51 47 42 38 35 35 37 38 39 43 44 41 38 36 36 37 37
17 18 19 19 19 19 18 18 18 18 17 17 16 16 17 18 20 22 22 22 24 24 25 26 27 30 31 31 32 33 33 33 33 34 35 35 35 35 35 36 38 40 42 44 45 47 50 51 52 52 51 52 54 54 54 55 55 56 57 57 57 57 57 57 58 58 56 54 52 48 42 38 35 34 35 35 34 36 39 38 37 37 38 37 36
18 18 19 20 20 19 18 19 19 19 19 19 18 18 18 19 19 21 21 22 23 24 25 27 29 31 32 33 33 34 34 34 34 35 35 35 35 35 35 36 37 39 41 43 44 46 48 50 51 50 49 51 53 53 53 53 53 54 55 55 56 57 56 56 58 58 55 52 50 46 39 35 32 30 31 32 31 32 35 35 36 37 37 35 33
19 19 19 19 20 20 19 19 19 19 19 19 20 20 21 21 22 22 23 24 25 26 28 29 31 32 33 33 33 33 33 33 34 35 35 36 37 37 36 36 37 39 41 42 44 46 48 49 50 49 49 51 52 52 52 52 52 53 54 54 55 57 56 56 57 57 54 51 48 43 37 34 32 29 30 33 34 35 36 36 36 36 34 33 32
18 18 18 18 18 19 19 19 18 19 19 20 20 21 21 22 23 24 25 27 28 29 30 31 32 34 34 34 34 34 33 32 33 33 34 35 37 38 38 37 38 39 40 42 43 45 47 49 50 49 50 51 52 51 51 51 52 54 54 54 55 55 55 55 56 55 53 50 48 44 39 36 33 31 32 35 37 38 37 36 35 33 32 31 30
17 16 16 16 17 17 18 18 19 19 20 20 21 22 22 24 24 25 26 28 29 29 30 31 32 33 34 34 35 34 34 33 33 33 33 34 35 37 38 39 39 39 40 41 43 45 47 49 50 50 51 51 51 51 51 52 53 54 55 54 55 55 55 55 55 54 51 49 48 47 43 38 34 33 35 37 37 37 35 33 32 30 29 28 26
15 15 16 16 17 18 19 20 20 20 20 21 21 22 23 24 25 26 26 27 28 29 30 31 32 32 33 33 34 34 34 34 34 34 33 33 34 36 37 39 40 40 41 41 42 44 46 48 51 52 52 52 51 51 51 51 52 53 54 54 54 54 54 54 54 52 49 48 48 48 45 40 36 36 39 41 40 36 32 30 28 26 25 24 22
15 16 17 18 19 20 20 21 22 22 22 23 23 23 23 24 24 25 26 27 28 29 30 31 31 32 33 33 34 34 35 35 35 34 34 34 34 35 36 38 40 41 42 42 42 43 44 45 48 50 51 51 51 51 50 48 49 50 51 51 52 53 53 53 53 51 49 48 48 48 45 40 38 40 42 41 38 34 30 28 26 24 23 23 22
17 18 19 20 21 21 22 22 22 23 23 24 25 25 25 25 26 26 27 28 28 29 30 31 32 33 33 34 35 35 36 36 36 35 35 35 34 35 36 37 39 41 42 43 44 44 44 44 45 46 48 50 50 50 49 47 47 48 49 50 51 52 52 52 52 51 49 48 50 50 47 43 42 42 41 38 36 33 30 27 26 24 24 23 23
18 19 20 21 21 22 22 22 22 23 23 24 24 25 25 26 27 27 28 29 30 31 32 32 33 33 35 36 36 37 38 37 37 36 36 35 35 36 37 38 39 40 42 43 45 45 45 44 44 45 48 50 51 51 50 48 47 46 47 49 52 52 52 52 52 51 49 48 49 49 49 47 44 41 40 39 38 34 29 26 25 23 22 22 24
18 19 20 21 22 22 23 23 24 24 24 25 26 26 27 27 28 29 29 30 31 32 33 34 34 35 36 37 38 39 39 39 38 38 38 37 36 36 37 38 39 41 42 43 44 45 45 45 44 44 46 47 49 49 49 49 48 47 46 48 51 52 52 53 52 49 48 48 48 49 50 48 44 42 41 40 37 32 27 25 23 21 20 22 24
19 20 21 22 23 23 24 25 26 26 27 28 29 29 30 31 31 32 32 33 33 34 34 35 36 36 38 39 40 41 41 40 40 40 40 40 38 37 38 40 40 41 42 43 44 45 45 45 45 44 44 44 44 44 44 45 46 46 46 47 50 52 52 52 49 46 46 47 48 50 50 48 45 43 41 38 34 30 26 24 22 20 21 23 25
19 20 21 22 23 24 25 26 27 28 29 30 32 33 34 35 35 35 36 37 37 37 37 38 38 39 39 40 41 42 42 41 40 40 41 41 40 39 39 40 41 42 43 43 44 45 46 46 46 45 44 43 44 44 44 44 44 45 45 46 48 50 51 51 48 46 46 47 47 48 48 47 43 40 38 35 32 27 24 22 20 20 21 23 23
19 20 21 22 23 25 26 27 28 29 30 31 33 34 36 37 38 39 40 40 41 41 41 42 42 42 42 42 44 45 45 43 42 41 41 40 40 40 40 41 42 44 44 44 44 45 46 46 46 45 43 43 44 45 45 45 45 45 45 45 46 48 49 50 49 48 48 48 46 43 43 42 38 35 35 33 29 25 21 17 16 17 19 21 22
20 21 22 23 24 26 27 28 29 30 31 33 34 35 37 38 39 40 41 42 43 44 45 45 46 46 46 46 47 49 49 47 45 44 43 41 40 40 41 42 43 44 45 45 45 45 46 46 46 45 43 43 44 45 45 45 45 46 46 45 46 47 47 48 48 47 46 45 42 37 34 34 33 34 34 33 29 25 21 18 18 19 21 23 24
23 24 25 25 26 28 29 30 31 32 33 34 36 36 37 38 39 41 42 43 44 45 46 47 48 48 49 49 49 51 52 51 49 48 46 43 40 40 41 42 43 45 46 45 44 45 46 46 45 44 43 42 43 44 44 45 46 47 47 45 45 45 45 45 44 44 42 40 37 33 29 30 34 36 35 32 29 26 24 24 25 25 25 26 26
27 28 28 29 30 30 31 32 34 34 35 36 37 38 38 39 40 41 43 44 45 46 46 47 48 48 49 49 49 51 52 52 51 50 49 46 42 41 41 41 44 46 46 45 45 45 46 46 44 44 43 42 42 42 43 44 46 47 45 44 44 44 44 43 43 42 40 38 35 32 31 33 35 36 35 32 28 25 25 26 25 24 26 27 26
30 31 32 32 33 33 34 35 36 37 38 38 39 40 41 41 42 42 44 45 46 47 48 49 49 49 49 49 49 50 51 51 50 50 50 47 44 42 40 40 44 46 46 46 46 46 46 45 44 43 42 41 41 42 42 43 45 45 44 42 43 44 44 43 42 42 41 38 36 36 37 37 36 36 34 29 26 25 25 24 22 22 23 24 24
32 33 34 34 34 35 36 37 38 38 40 41 42 43 44 44 45 46 46 47 48 49 50 51 52 52 51 51 51 51 52 52 51 50 50 48 46 43 40 41 43 45 45 45 46 47 46 46 45 43 41 39 39 40 41 42 44 44 43 43 44 43 41 41 42 43 41 40 39 39 39 39 37 35 31 28 27 27 26 24 23 22 21 22 23
34 35 35 35 35 36 36 37 38 39 40 41 43 44 45 46 47 48 49 50 51 52 53 53 54 55 54 54 54 54 54 54 52 51 51 50 47 43 41 42 42 42 42 44 46 46 46 46 45 43 39 37 38 39 40 41 42 42 42 43 41 39 38 40 42 42 41 42 42 41 39 38 36 32 29 29 29 28 26 26 24 22 21 21 22
34 35 36 36 37 37 37 37 38 39 39 40 42 44 44 45 46 47 49 50 51 53 54 54 55 56 57 57 57 56 56 55 55 53 52 51 49 45 42 41 40 39 40 44 45 45 45 45 45 43 39 37 37 39 39 39 40 41 40 39 37 36 38 40 42 43 43 44 45 43 40 37 33 31 32 32 30 28 27 26 23 21 21 21 21
34 35 36 37 38 38 39 39 39 40 40 41 42 43 44 45 46 47 48 49 51 52 53 54 54 56 57 58 58 58 57 56 55 55 53 51 50 47 43 41 38 36 38 43 44 44 44 43 43 42 40 37 38 39 38 36 38 38 36 34 35 37 38 40 43 44 45 47 47 44 39 34 32 34 35 33 30 29 28 25 22 21 21 21 21
36 37 38 38 39 40 41 41 41 41 41 42 43 44 45 45 46 47 48 49 50 52 52 53 54 55 57 58 58 57 56 55 54 54 53 50 49 47 44 41 38 35 36 40 42 42 42 42 42 41 40 38 38 39 37 35 35 34 32 33 36 37 39 42 43 45 47 50 48 42 35 33 35 36 34 32 31 30 27 24 22 22 21 20 21
37 38 39 40 41 42 42 42 42 43 43 43 44 45 46 46 47 47 48 49 50 51 52 53 54 55 56 57 58 57 56 54 53 52 51 49 47 46 44 40 37 34 35 38 40 40 40 41 41 40 39 38 38 37 36 34 32 31 32 33 35 39 42 42 44 48 51 50 44 36 34 36 37 36 34 33 32 29 26 24 23 21 20 20 20
38 39 40 41 41 43 44 44 44 44 44 45 45 46 46 47 48 48 49 49 50 51 52 52 53 54 55 56 56 56 55 54 53 52 51 49 46 43 41 39 36 32 32 35 37 38 39 40 40 40 39 38 37 36 36 34 32 30 32 32 35 41 43 43 46 52 51 45 39 36 38 39 38 36 34 33 30 27 24 23 21 20 20 20 20
40 41 42 43 43 44 45 46 47 47 47 47 47 47 47 47 47 48 49 50 51 51 52 52 53 53 54 54 54 54 54 54 54 52 50 48 45 40 38 38 35 32 31 32 34 36 39 40 40 40 39 37 35 33 33 33 30 30 33 34 36 42 45 44 48 50 46 40 39 40 40 40 39 36 34 30 28 26 23 21 19 19 19 20 20
42 43 44 45 46 46 47 48 48 49 50 49 49 49 48 47 48 48 49 50 51 51 52 52 53 53 52 52 52 53 53 53 52 50 49 47 44 40 37 36 35 33 32 31 31 33 36 38 39 39 38 36 33 31 31 30 30 32 36 38 39 43 46 46 47 46 42 40 40 41 41 41 39 35 32 29 27 24 22 20 18 18 19 19 20
45 46 46 48 48 49 49 50 50 51 51 52 52 51 50 49 49 50 50 49 49 51 51 52 52 52 51 50 50 50 52 54 51 48 46 45 44 40 36 34 34 33 31 30 30 31 33 36 38 39 38 37 35 33 31 30 29 32 36 39 42 45 48 49 48 47 45 43 42 42 42 41 36 32 30 28 25 22 20 18 17 17 19 20 20
47 48 48 49 50 50 51 52 52 51 52 52 53 53 53 51 51 51 51 50 49 50 50 51 52 51 50 50 50 48 50 51 50 47 44 43 42 38 34 31 31 32 30 30 30 30 32 34 37 39 38 37 36 35 33 30 29 32 36 39 43 46 48 49 49 48 46 44 43 43 41 36 33 31 29 26 22 19 18 17 17 18 19 20 21
48 49 50 50 50 51 52 52 52 52 52 52 53 54 55 55 54 52 52 51 51 51 51 51 52 51 50 50 49 49 48 48 47 45 43 40 38 36 33 30 31 31 30 29 30 31 32 34 37 38 38 38 37 36 34 32 31 33 35 39 42 45 48 50 49 46 43 42 42 40 36 32 30 29 27 23 18 15 16 17 18 19 20 21 22
47 49 50 50 51 51 51 52 52 52 53 53 53 53 55 57 57 56 54 52 51 51 52 52 52 51 50 48 47 47 47 45 42 41 38 36 35 34 33 32 31 30 28 28 30 32 32 35 37 38 38 38 37 36 35 33 33 35 37 39 41 43 48 50 48 43 41 41 40 35 31 30 29 26 23 17 13 13 15 18 19 20 20 21 21
46 47 49 49 50 51 51 51 52 52 53 53 54 54 54 55 57 58 58 57 55 52 52 52 51 50 49 47 44 44 44 42 38 35 33 32 33 34 34 33 32 30 27 27 31 33 33 35 37 38 37 37 36 35 34 34 34 36 39 41 42 42 42 44 43 41 40 38 35 30 29 28 25 22 17 12 11 13 16 18 19 20 21 21 21
45 46 47 48 49 50 50 50 51 52 53 54 54 54 55 55 55 56 57 58 58 56 54 53 51 49 48 47 43 40 39 37 34 31 30 31 32 33 34 33 32 30 27 27 32 35 35 35 36 37 36 35 34 33 33 33 34 36 38 40 42 42 40 40 41 42 39 35 30 28 26 24 20 16 13 12 13 15 18 19 20 21 21 21 20
45 46 47 47 48 49 50 50 51 52 53 54 54 54 54 54 53 53 53 52 53 55 56 54 51 48 46 44 41 39 37 35 32 30 30 31 31 32 32 33 32 31 29 28 32 36 37 35 35 35 35 34 33 32 32 32 34 36 37 37 39 41 41 41 43 42 37 32 28 26 23 19 16 14 14 15 17 18 20 21 22 22 21 20 19
45 46 47 47 48 49 50 51 51 51 52 53 53 53 53 52 51 51 49 47 46 48 52 53 51 47 44 41 39 38 36 33 30 29 30 30 31 31 32 34 33 32 31 30 32 36 38 36 33 33 33 33 32 30 31 32 33 36 39 39 39 40 40 40 40 38 33 29 26 23 20 17 15 16 17 18 19 20 20 21 21 21 20 19 19
45 47 47 48 48 49 50 50 50 49 49 50 51 52 52 51 49 47 45 44 44 45 48 49 48 46 44 41 38 36 34 31 30 29 29 29 29 30 31 32 32 31 31 30 32 36 38 36 33 31 31 31 30 29 30 31 31 33 38 40 39 39 39 38 36 33 29 26 24 21 18 16 17 18 19 20 20 21 21 21 20 19 19 18 18
46 47 47 48 48 48 49 49 48 47 47 48 49 49 49 49 46 43 42 43 44 44 45 44 43 44 44 40 35 33 34 33 31 29 28 28 29 29 29 30 30 29 29 30 32 35 36 35 32 29 29 28 28 28 29 30 29 30 34 38 39 39 38 37 35 31 27 24 21 18 18 19 20 21 21 21 21 21 21 20 19 18 17 17 17
46 47 46 46 46 46 46 46 46 46 46 47 47 46 45 44 43 42 42 43 43 42 41 41 41 41 40 37 35 34 35 34 32 29 28 27 28 28 28 29 29 28 28 29 30 31 33 32 29 26 25 25 25 25 26 29 29 28 29 32 35 37 36 35 31 27 24 22 21 21 22 22 21 21 21 20 20 20 19 18 16 15 15 15 16
46 46 46 45 45 44 43 43 43 44 45 45 45 42 40 39 39 40 40 40 40 40 39 39 40 39 37 35 35 34 34 33 30 28 26 26 26 26 26 26 26 26 26 27 27 27 28 28 26 24 22 22 22 22 22 24 28 30 30 30 31 31 31 30 28 26 25 24 25 24 23 22 21 21 20 20 19 19 17 15 14 14 14 15 15
44 44 44 43 42 41 41 42 43 43 42 41 40 38 37 37 38 39 39 39 39 39 38 37 37 35 34 33 33 31 30 28 27 25 24 24 25 24 23 23 23 23 24 24 24 23 23 23 22 22 20 18 19 19 19 20 24 28 31 32 32 31 31 30 29 28 27 25 24 23 22 21 20 20 19 19 18 17 15 14 14 15 15 15 16
42 42 42 41 39 38 38 40 41 40 39 38 36 36 36 37 37 37 36 36 35 35 36 35 34 32 32 32 30 27 25 23 23 23 23 22 22 22 20 19 19 19 19 19 19 19 19 19 18 17 15 14 14 15 16 17 20 23 26 28 29 29 29 28 26 25 23 22 21 21 20 20 19 19 18 17 16 15 14 14 15 15 15 16 16
39 39 39 38 36 35 36 37 38 37 36 35 35 35 34 34 33 33 32 32 32 33 33 33 32 31 30 29 27 24 21 21 20 20 19 19 19 18 16 14 13 15 15 14 14 14 14 14 14 12 10 9 10 10 11 13 15 17 20 21 23 23 23 22 22 21 20 20 20 19 19 19 19 18 17 16 14 14 13 14 14 14 15 16 16
36 36 36 35 34 33 33 33 34 34 33 33 33 32 31 30 29 29 29 29 30 31 31 31 30 29 27 25 23 20 19 19 18 17 15 15 15 15 13 11 10 11 12 12 11 11 10 9 10 10 9 9 9 9 10 10 12 13 15 16 18 18 18 18 18 18 18 18 19 19 19 18 18 16 15 14 13 13 13 12 13 14 15 16 17
34 34 33 33 32 32 31 31 31 31 31 31 31 30 28 28 28 27 26 27 28 29 28 27 26 24 22 20 19 18 17 16 14 13 12 11 11 11 11 10 9 9 10 10 10 10 9 8 8 8 9 9 10 11 12 12 12 12 12 13 14 14 15 15 15 16 16 16 17 17 17 16 15 14 14 13 12 12 12 12 13 14 15 16 16
33 32 32 32 32 31 30 29 28 28 28 28 28 27 27 27 27 26 25 25 25 25 24 23 22 20 19 17 16 15 14 12 11 10 8 7 7 6 7 7 7 8 8 9 9 8 8 7 7 8 8 10 12 13 13 14 14 14 14 14 13 13 14 14 14 14 14 14 14 14 14 14 14 13 12 12 12 12 13 14 15 15 16 16 16
32 31 31 31 31 31 29 27 26 26 25 25 24 25 25 25 25 25 24 22 22 21 20 19 18 17 16 15 14 13 11 10 8 7 6 5 4 4 4 4 4 4 5 6 6 6 7 7 8 9 9 10 11 13 13 14 15 15 15 14 14 14 13 14 14 14 14 13 13 13 13 13 12 12 12 12 13 13 13 14 15 15 15 15 15
31 30 30 29 30 30 29 27 25 23 23 22 22 22 22 23 23 22 22 21 20 19 17 16 15 14 14 13 12 11 9 8 7 5 4 4 3 3 3 2 2 3 4 5 6 7 7 8 9 9 9 10 10 11 12 12 12 12 12 12 13 13 13 13 13 13 13 12 12 12 12 12 12 12 12 12 13 13 14 15 15 15 15 15 15
31 29 29 28 28 28 28 27 24 22 22 21 21 20 19 19 19 19 19 18 18 17 16 14 13 12 12 11 10 9 8 7 6 5 4 3 2 2 1 2 3 3 4 5 6 6 7 8 8 8 8 8 9 9 9 10 11 11 11 12 12 12 12 12 11 11 11 11 10 11 11 11 12 12 12 13 14 14 15 15 15 15 15 15 15
30 28 27 26 26 25 25 25 23 21 20 19 19 18 18 17 16 16 16 15 15 14 13 13 12 11 10 9 9 7 6 5 4 3 3 2 1 1 2 3 4 4 5 5 5 6 6 7 8 8 8 8 9 10 10 11 11 11 10 10 10 10 10 9 9 9 9 9 10 11 11 12 12 13 14 14 15 15 14 14 14 15 15 15 15
28 27 26 25 24 23 23 22 22 21 19 18 17 17 16 16 15 14 13 13 12 11 11 10 10 9 8 7 6 5 4 3 3 2 2 2 2 2 2 3 4 4 5 5 6 6 8 9 9 9 10 10 10 10 10 9 9 9 8 8 8 8 8 8 8 9 9 10 10 11 12 12 13 13 14 14 13 13 13 13 14 14 15 15 15
Wind_Direction
313 314 315 316 317 319 320 319 314 306 296 288 282 281 281 283 285 286 285 286 289 291 292 293 293 293 292 291 291 291 290 290 290 289 289 289 289 286 277 265 257 255 255 257 259 261 263 264 265 266 267 268 270 272 272 272 271 270 267 264 262 261 258 253 252 257 259 259 259 258 256 252 249 247 240 232 228 226 225 225 226 227 228 231 237
320 317 317 317 317 319 320 318 316 314 310 301 293 288 285 285 285 285 286 288 290 291 292 293 292 292 292 291 291 291 291 292 292 292 292 292 291 288 281 270 263 259 257 257 258 260 263 264 264 266 268 268 268 269 271 271 270 270 269 267 266 265 262 257 254 255 256 257 256 255 254 249 247 247 239 232 229 225 223 222 223 225 227 232 237
321 315 315 317 320 321 320 317 315 314 313 308 302 295 289 287 286 285 286 287 288 289 290 290 289 289 289 289 289 290 290 291 291 291 291 292 292 290 285 276 268 264 261 260 261 261 262 263 265 268 270 269 270 271 271 271 270 270 270 269 269 269 265 260 256 254 253 255 254 254 252 246 246 247 238 231 228 224 220 220 220 224 228 233 237
324 319 318 320 323 323 321 317 314 312 310 308 306 304 300 297 295 294 293 291 290 290 289 289 289 290 290 291 291 291 291 290 289 289 289 291 291 289 287 281 273 268 264 263 263 263 264 266 268 271 271 270 270 271 272 272 272 272 272 272 271 271 267 262 259 255 253 252 252 252 249 243 243 244 234 226 223 219 216 216 219 225 231 235 237
329 326 324 323 324 324 322 320 317 315 312 311 309 308 306 304 302 301 299 296 295 294 293 293 293 293 292 293 293 292 291 290 288 287 287 288 288 288 287 284 279 273 268 264 262 262 263 265 267 271 273 272 271 271 272 273 274 274 273 273 273 273 269 263 260 256 253 251 250 248 242 236 236 237 230 224 219 213 211 214 220 226 231 234 235
328 327 324 322 321 322 325 325 324 322 321 321 318 316 313 310 308 306 303 301 300 298 297 296 295 294 294 294 294 293 292 290 287 286 286 286 286 286 286 285 283 279 274 269 265 262 262 263 265 266 268 269 271 272 273 274 275 274 273 273 274 273 270 265 261 257 253 250 246 243 238 233 235 234 226 219 218 216 214 215 221 226 230 233 233
327 327 325 324 323 325 328 330 330 331 331 330 327 324 322 319 317 315 311 309 307 304 302 300 299 298 299 298 298 298 296 294 291 290 288 287 286 286 286 286 285 282 278 274 270 265 263 262 263 263 264 266 268 271 273 273 273 274 273 274 274 272 269 266 262 256 251 245 241 239 236 234 234 230 221 215 214 217 219 220 223 226 229 232 231
329 329 328 329 328 328 330 330 331 333 331 329 327 324 323 322 321 320 318 315 313 310 308 306 305 304 304 304 303 303 301 299 298 296 293 291 288 287 286 286 286 285 283 279 275 270 266 264 262 262 263 265 267 269 271 271 272 272 272 273 272 270 268 265 260 254 249 242 239 237 235 232 229 221 215 212 211 213 218 223 225 227 230 231 231
327 328 328 328 328 328 329 329 329 329 328 326 324 322 321 321 321 320 319 318 316 314 312 311 311 310 310 310 309 307 305 304 303 302 299 296 292 289 286 285 285 285 284 283 280 276 272 268 265 263 262 263 265 268 270 271 273 273 273 272 271 269 266 262 257 253 246 240 236 235 232 228 222 213 208 210 214 218 220 221 223 225 227 229 233
327 328 328 328 328 328 328 328 328 326 325 324 323 322 322 321 321 321 320 319 318 316 315 316 316 315 315 314 313 311 310 309 309 307 304 300 296 291 288 285 284 283 283 282 282 280 278 274 269 265 262 262 265 268 269 271 272 273 274 272 270 268 264 260 258 253 246 239 235 233 228 221 215 212 211 215 219 220 218 217 219 219 220 225 232
330 330 330 330 330 330 329 329 329 328 326 325 324 324 324 323 323 321 320 319 317 316 316 316 316 316 316 315 314 313 313 313 312 310 306 302 298 294 291 288 285 283 282 282 281 281 281 279 275 269 264 262 264 266 268 270 271 273 274 271 269 268 265 262 259 253 245 238 234 230 225 217 212 213 216 218 218 216 213 213 215 216 221 229 238
331 330 330 330 329 329 328 327 328 328 327 327 327 327 327 326 325 323 321 319 316 314 314 313 312 313 313 312 312 312 312 312 312 310 306 303 299 296 293 290 287 285 283 282 282 281 282 282 280 276 270 266 265 266 269 270 270 272 273 271 268 267 265 263 260 254 247 239 232 227 224 219 214 213 214 216 215 213 211 211 214 221 231 241 248
327 327 328 328 327 327 326 325 326 327 327 327 327 328 328 327 327 325 323 320 318 316 314 313 312 312 311 310 310 309 309 311 311 309 306 304 301 297 294 291 289 286 284 282 282 281 281 281 280 278 275 272 269 269 272 273 272 272 271 270 267 265 263 261 257 254 251 246 239 235 230 222 216 211 212 216 215 211 208 210 216 226 238 250 253
324 324 325 325 325 325 325 325 326 326 326 327 326 327 327 326 326 325 322 320 319 317 316 314 313 312 311 310 309 308 309 310 310 308 305 303 300 297 294 291 288 286 284 282 281 280 280 280 279 278 276 273 271 270 271 273 274 274 273 271 269 266 263 258 252 248 247 245 244 242 234 225 218 212 212 216 216 212 213 219 226 237 249 254 246
322 322 322 322 322 322 322 322 323 324 324 324 324 324 323 322 322 321 319 318 318 317 316 315 314 313 313 312 310 309 310 311 310 309 307 304 300 296 293 290 288 286 284 282 280 279 279 278 278 278 276 273 271 270 270 271 273 275 274 271 270 268 263 257 252 248 245 241 240 240 236 229 220 213 215 218 217 216 220 228 238 245 246 239 226
320 319 318 319 319 319 319 319 319 319 319 318 318 317 317 316 316 315 314 314 314 314 314 314 314 314 313 313 313 311 311 312 312 311 310 307 302 297 294 291 288 286 284 282 280 279 278 277 277 277 276 274 272 271 271 271 271 273 273 271 268 266 262 257 252 247 244 238 233 233 233 226 216 214 219 219 213 210 212 217 224 228 225 219 214
317 316 316 316 316 316 317 316 315 315 314 314 313 312 311 310 310 310 310 309 309 310 310 310 310 310 310 311 312 311 309 310 311 311 310 309 304 300 296 292 289 287 285 283 281 279 278 277 277 277 277 276 275 273 272 272 271 271 271 269 265 261 258 253 247 241 236 231 227 224 222 217 214 217 218 213 206 208 215 220 223 225 222 217 213
313 313 313 313 313 313 313 312 311 310 310 309 308 307 306 306 306 306 306 305 305 304 305 304 304 304 305 306 307 306 305 306 309 309 308 308 306 301 297 293 290 288 286 284 282 279 278 277 276 276 275 276 276 275 273 273 271 270 268 265 261 257 253 248 242 234 226 221 219 217 215 215 216 215 212 207 207 216 226 230 230 228 224 220 218
311 310 310 310 310 310 309 308 308 307 306 305 304 304 303 302 302 302 302 302 301 300 300 301 300 299 300 301 302 302 301 302 304 306 305 305 304 301 297 293 290 289 287 285 283 280 278 277 275 274 275 275 276 276 274 273 271 269 266 261 257 254 251 247 243 235 223 214 211 212 213 213 210 205 204 208 213 220 225 228 227 224 221 221 222
308 307 306 306 306 306 307 306 306 306 305 304 303 302 302 301 301 301 300 300 300 299 299 300 299 297 297 298 298 299 299 300 301 303 304 303 302 301 297 292 290 289 288 285 283 281 279 277 276 275 274 275 275 275 275 273 270 267 263 259 256 255 252 248 243 235 222 211 207 207 207 205 201 199 204 210 214 216 218 218 219 221 223 225 226
305 305 305 306 306 307 308 308 308 307 307 307 304 302 303 304 303 303 302 302 301 300 299 299 300 298 297 297 297 297 298 300 300 301 303 302 300 300 297 293 290 289 286 284 281 280 278 277 277 276 275 275 275 274 275 274 270 267 264 262 261 258 254 247 237 227 216 209 206 205 202 198 196 200 209 215 214 213 213 214 217 222 227 230 232
307 307 308 310 310 311 311 311 311 310 310 310 308 306 305 306 306 305 305 304 303 302 301 300 300 299 297 296 297 297 298 300 301 301 303 302 301 299 297 294 291 287 284 281 279 277 277 277 277 278 277 276 275 274 275 274 270 267 266 264 260 253 247 240 230 219 211 208 206 204 199 196 199 207 215 216 213 210 211 214 217 223 229 234 237
308 309 310 311 312 313 312 312 312 311 311 311 309 308 308 308 307 306 306 305 304 303 302 302 303 302 299 297 296 296 297 299 300 301 302 303 301 299 296 293 291 285 280 279 278 278 278 277 277 278 277 276 275 274 274 272 269 268 266 261 253 245 238 231 223 215 209 207 207 203 198 200 210 216 215 212 209 209 211 214 217 223 229 234 236
307 308 309 310 311 310 310 310 310 310 309 308 307 307 306 306 306 306 305 305 305 304 304 304 304 303 302 300 298 298 298 299 299 299 301 302 301 299 295 292 289 285 279 277 277 277 277 276 276 277 277 277 276 275 275 273 270 267 263 254 244 237 230 225 219 213 208 207 206 202 203 213 219 216 211 209 208 207 208 211 217 224 230 234 238
306 306 308 309 310 309 309 309 309 310 310 309 308 307 306 306 305 304 304 304 304 304 304 304 304 303 302 302 301 300 300 299 298 298 299 300 300 299 297 293 288 285 281 277 276 276 276 275 275 275 275 276 275 274 274 271 267 263 257 248 237 229 225 221 216 212 208 205 204 206 215 220 217 210 208 209 207 205 206 211 218 225 230 233 237
306 307 308 309 309 310 310 310 310 310 310 310 310 309 309 308 306 305 304 303 304 304 304 303 303 302 301 301 301 301 300 299 298 298 299 300 300 300 298 293 287 283 279 277 276 274 273 272 272 273 273 272 271 271 270 268 263 256 247 239 228 221 220 219 214 210 207 203 205 215 221 217 209 206 207 207 205 205 209 214 220 226 230 232 234
308 309 310 310 310 310 310 310 310 310 309 309 309 308 308 308 307 306 305 304 304 304 304 304 303 302 302 302 301 300 299 298 298 298 299 300 300 298 295 291 286 281 277 275 275 274 273 272 272 273 272 270 269 269 267 266 260 246 235 229 222 217 218 216 212 209 206 206 213 220 218 210 205 205 204 202 203 206 211 217 223 226 228 230 231
310 310 310 311 310 310 310 310 310 309 308 308 308 307 307 307 306 305 305 305 305 304 304 304 303 303 304 304 302 300 298 297 298 299 299 298 297 295 294 291 289 285 279 276 276 276 275 273 271 268 266 263 261 259 257 257 252 239 229 223 219 216 214 213 212 211 210 214 221 220 211 204 203 201 199 199 203 207 210 215 220 224 226 227 227
311 311 310 311 310 310 310 310 310 310 309 308 308 307 306 306 305 305 305 305 305 304 303 303 303 303 304 303 302 300 298 298 299 299 298 295 293 293 293 291 289 286 281 277 275 275 274 270 265 262 259 255 252 250 248 246 242 235 227 221 217 214 212 212 213 212 213 219 222 215 205 200 198 195 196 200 204 206 210 214 219 223 225 225 227
311 311 311 311 311 311 310 310 310 310 310 309 308 307 306 305 304 304 304 304 304 303 302 301 301 302 301 301 300 299 298 299 300 298 295 292 291 292 291 288 284 282 280 277 274 272 269 266 262 258 255 251 248 245 243 238 232 228 224 218 215 214 213 213 213 213 217 221 217 208 200 195 193 193 198 201 201 204 210 216 221 225 226 227 230
312 312 312 312 311 311 310 310 310 309 308 308 308 307 306 304 303 302 303 304 303 302 302 301 301 301 300 299 300 299 299 299 300 298 294 291 289 289 288 285 280 278 278 276 273 268 264 261 258 254 250 247 244 242 240 235 226 222 221 219 215 213 213 213 213 214 217 214 206 198 195 193 194 196 197 196 197 207 217 221 223 226 228 229 231
313 313 312 312 311 311 310 310 309 309 308 308 308 307 307 306 304 303 302 302 303 302 302 301 301 301 300 299 299 299 300 300 300 298 294 289 286 286 285 283 279 277 276 272 268 264 260 256 254 251 246 243 242 240 237 232 223 216 216 217 214 210 210 210 210 213 213 204 196 193 193 193 195 194 192 193 204 219 225 226 227 228 229 230 231
313 313 312 312 312 311 311 311 310 310 309 309 309 308 308 308 307 306 304 303 302 302 302 302 302 301 300 299 300 301 302 302 301 296 290 286 284 283 283 281 278 275 271 263 257 257 256 252 250 247 243 241 241 237 234 231 223 215 213 215 213 209 206 206 209 213 208 199 193 192 191 190 191 190 192 205 222 228 230 232 232 231 231 232 232
314 314 313 313 313 312 312 312 312 311 311 310 310 310 309 308 308 307 306 305 304 303 302 302 302 301 300 301 301 302 303 302 300 294 287 284 283 283 283 281 276 271 266 256 249 249 250 249 246 244 241 240 240 236 231 229 223 217 215 216 214 213 213 213 214 211 203 196 194 193 191 191 195 201 214 230 234 232 233 235 235 234 234 233 231
316 315 315 314 314 313 313 313 312 312 311 310 310 309 308 308 308 308 307 306 305 304 304 303 303 303 303 302 301 300 300 299 297 293 289 286 285 283 280 275 271 267 261 251 243 243 245 246 246 245 242 240 239 235 230 227 223 219 218 216 214 213 214 213 210 205 199 195 194 194 194 200 211 226 240 243 238 236 236 237 237 237 235 232 231
316 316 315 314 314 313 312 312 311 311 310 309 309 308 309 309 310 309 307 305 303 303 304 304 305 306 305 302 299 298 298 298 297 295 293 290 286 280 273 269 266 265 261 251 241 238 240 243 246 247 244 240 238 234 228 225 222 219 218 217 214 212 212 209 204 199 197 196 196 199 206 217 229 240 244 240 238 239 240 239 238 235 232 232 232
316 315 315 314 313 312 312 311 311 311 311 311 311 311 311 311 311 309 306 303 302 302 302 303 304 304 303 301 300 300 300 301 300 298 294 289 282 275 269 266 263 262 259 252 242 236 237 239 242 245 243 239 237 233 225 221 220 217 216 217 216 214 213 211 206 201 199 199 202 208 219 232 243 246 242 237 236 238 238 237 234 231 231 232 233
315 315 314 314 314 313 313 313 313 313 314 314 313 313 312 311 310 307 304 303 304 303 301 301 300 299 299 301 303 303 303 302 301 297 292 285 277 270 265 262 260 258 255 251 243 237 235 235 237 242 243 241 238 232 224 219 217 215 214 215 216 216 215 212 207 204 204 207 212 223 237 244 245 241 236 235 238 239 237 234 231 230 232 235 236
315 314 314 314 315 315 315 315 316 317 317 316 315 314 312 310 309 306 304 305 306 304 302 301 298 297 299 303 305 304 303 301 298 295 291 285 278 270 264 260 258 255 251 247 242 237 233 233 236 242 244 242 238 233 225 219 217 214 211 210 209 210 209 208 207 209 213 221 232 241 244 242 237 233 234 238 239 237 234 232 231 233 236 238 239
315 315 315 315 315 315 315 316 317 318 318 316 315 314 312 310 309 307 306 306 306 303 302 301 299 299 302 304 304 303 300 298 296 293 289 284 278 271 264 259 254 251 247 244 241 236 233 234 238 244 246 242 238 234 228 222 219 218 216 213 211 211 211 213 217 223 229 235 240 241 237 232 230 232 235 236 233 231 230 230 230 232 234 234 236
315 315 315 315 315 315 315 317 318 318 317 314 313 313 314 313 312 310 308 306 304 303 302 301 301 303 305 305 304 302 298 295 293 289 284 280 275 269 263 256 251 249 246 243 241 239 237 238 240 243 244 242 238 234 230 225 221 220 220 220 221 221 221 223 225 229 232 234 233 230 228 229 231 233 233 230 228 227 227 226 227 228 229 231 236
315 315 314 314 314 314 315 317 317 316 314 313 314 316 316 314 312 310 308 306 306 305 305 304 306 308 308 306 304 301 295 290 287 283 279 274 269 264 260 253 248 246 245 242 240 240 239 240 240 242 242 239 235 230 226 222 220 219 219 220 220 221 222 223 224 225 224 223 222 224 227 230 231 230 228 226 226 226 225 225 225 227 230 235 240
316 315 314 313 313 313 314 315 314 314 315 317 319 318 316 313 312 311 310 309 310 310 309 309 310 310 308 305 302 297 290 285 282 278 274 270 265 259 253 245 238 235 234 233 232 233 234 235 234 233 229 221 216 214 212 211 211 213 214 216 217 217 216 215 215 214 213 215 219 223 226 226 225 224 224 224 225 225 225 225 227 230 235 241 245
317 316 314 313 312 312 312 313 315 317 319 321 320 319 318 317 317 316 315 315 316 314 312 310 310 308 305 301 296 290 285 280 277 274 270 267 262 255 245 236 227 223 222 221 220 220 223 226 226 221 211 199 190 187 186 188 192 197 201 203 204 205 205 205 207 210 213 217 220 221 220 220 220 222 222 222 224 226 228 230 233 237 241 245 248
320 318 316 314 313 313 313 316 319 320 322 322 321 321 322 322 321 320 321 321 319 317 314 312 310 306 301 295 289 284 282 279 277 275 272 266 261 254 248 242 237 231 226 223 221 220 221 220 216 209 200 189 180 175 174 174 176 182 189 194 199 202 204 206 209 211 213 216 217 217 217 217 218 220 221 222 225 229 233 237 239 242 245 248 251
323 321 320 319 318 318 319 320 322 323 324 324 322 323 325 325 324 324 324 324 323 320 316 313 310 304 297 289 283 281 282 282 281 280 276 266 257 252 248 244 242 240 234 226 221 217 212 204 194 186 184 181 177 175 176 177 178 180 184 187 192 196 199 201 202 203 204 206 209 211 214 215 217 220 223 226 230 234 237 240 243 246 249 252 254
327 326 325 324 323 322 321 322 323 325 326 326 325 325 326 327 326 326 326 327 327 323 317 314 311 304 294 286 282 283 286 289 287 284 281 271 258 247 240 234 229 220 207 196 188 183 178 174 169 167 171 176 179 181 182 182 182 184 184 184 186 189 190 191 193 194 196 200 204 208 213 217 222 226 229 233 237 240 242 245 249 251 253 254 255
334 332 330 328 327 325 323 323 325 327 328 329 329 329 328 328 328 328 329 329 328 324 319 317 314 305 294 287 287 290 293 294 292 288 284 278 266 250 234 215 185 169 168 167 164 162 163 163 163 164 167 172 178 182 183 181 180 179 178 178 179 180 181 184 187 190 195 201 206 212 219 224 229 233 237 239 242 245 246 248 250 252 253 253 254
341 340 338 335 332 330 327 326 326 328 329 331 331 331 331 330 331 331 332 331 329 326 323 319 314 307 298 293 293 297 299 298 294 289 282 276 262 234 195 156 142 147 159 165 164 161 159 159 160 162 163 165 167 169 169 168 166 166 167 170 173 176 180 186 191 196 202 209 215 221 227 231 234 237 240 242 244 246 247 248 250 251 253 254 254
346 346 345 343 341 338 334 330 328 329 330 332 332 332 331 332 333 334 335 334 332 330 327 323 316 308 301 296 295 297 298 296 291 282 269 250 221 181 143 128 131 139 150 158 159 154 151 152 153 153 154 155 155 155 156 157 159 163 168 173 178 183 189 194 200 206 213 219 224 229 232 235 238 240 242 244 246 248 249 251 253 254 254 254 254
349 349 350 351 350 348 345 341 338 337 336 337 338 337 335 335 336 338 339 339 338 336 333 328 320 311 303 298 295 295 296 296 289 264 226 201 186 167 140 123 125 135 145 152 150 145 144 147 148 149 151 152 152 153 157 162 167 173 179 185 191 197 204 210 216 221 225 228 232 235 238 240 242 244 246 248 250 252 253 254 254 253 252 252 251